Location: Saratoga Springs
(43.0831°N, 73.7850°W)
Time: 01:50:48
(UTC-04:00)

Vanguard 3 - Pass Details

Date: 01 May 2024
Orbit: 509 x 3232 km, 33.3° (Epoch: 26 May)

Event Time Altitude Azimuth Distance (km) Brightness Sun altitude
Exits shadow 00:10:16 34° 133° (SE) 4,378 10.4 -30.9°
Drops below altitude 10° 00:22:18 10° 91° (E) 5,511 11.3 -31.3°
Sets 00:26:33 0° 83° (E) 6,219 11.7 -31.4°
